Simultaneous Nadir Overpasses (SNOs) Predictions

Prediction of SNOs between GOES-14 and NPP Satellite Orbit:

Table of predicted SNOs for the next 14.0 days since TLE Epoch: 10/27/2023
Index Date Time (GOES-14) GOES-14 Lat,Lon NPP Lat,Lon Distance(km) Time Diff (sec)
1 10/28/2023 20:46:44 -0.12,-108.56 -0.57,-110.51 222.26 80
2 10/29/2023 20:30:39 -0.14,-108.57 0.43,-105.98 294.47 80
3 10/31/2023 08:49:48 0.11,-108.63 0.70,-111.27 300.50 80
4 11/01/2023 08:33:44 0.12,-108.63 -0.31,-106.73 216.01 80
5 11/02/2023 20:53:01 -0.09,-108.57 -0.85,-112.05 396.40 80
6 11/03/2023 20:36:57 -0.10,-108.57 0.15,-107.52 120.17 80
7 11/05/2023 08:56:05 0.07,-108.63 1.02,-112.79 474.69 80
8 11/06/2023 08:40:01 0.08,-108.64 0.01,-108.26 42.03 80
9 11/08/2023 20:40:33 -0.07,-108.58 -0.14,-109.05 53.09 80
10 11/09/2023 20:24:28 -0.08,-108.58 0.81,-104.51 463.91 80
